VOLGA R/B, 68756

Orbit data source: Space-Track

VOLGA R/B, 68756 is space debris in SSO originally from a launch on Thu, 16 Apr 2026 UTC launched from the Plesetsk Missile And Space Complex (PKMTR). Debris objects in space refer to the collection of defunct objects orbiting the Earth. Examples of debris include non-operational satellites, rocket bodies, and fragments generated from explosions, collisions, or faulty payload assembly.

Loading next visibility...
Identifier
68756, 2026-083D
Orbit
SSO
Country
Flag of CISCIS
Related business
Manufacturer
TsSKB-Progress
Mission
Operational spacecraft
Bus & Motor
VOLGA, Unknown motor
Mass
~1,120 kg wet, 1,120 kg dry
Launch date (UTC)
2026-04-16 (1 month ago)
Launch vehicle
Unknown
Launch site
Plesetsk Missile And Space Complex (PKMTR)
Object type
Payload
Rocket body
Debris
Shape & HBR
Unknown shape, 8.0 m
Radar Cross Section
RCS unknown

Expand to show TLE details & history
Last TLE update: 1 day ago

TLE from 1 day ago
0 VOLGA R/B
1 68756U 26083D   26137.93601208  .00005923  00000-0  19450-3 0  9990
2 68756  96.9097 277.0229 0015633 157.2590 202.9349 15.31799632  4739
Epoch: 2026-05-17T22:27Z
TLE epoch observation values (Epoch: 2026-05-17T22:27:51.443Z)
Latitude
-0.00001°
Longitude
64.42708°
Altitude
483.428 km
Speed
7.618 km/s
True Right ascension
18h 28m 05s
True Declination
0° 00' 00"
Sunlit
Object was in full shadow at epoch
Visualization orbit readout
Latitude
Unknown
Longitude
Unknown
Altitude
Unknown
Speed
Unknown
Apparent Right ascension
Unknown
Apparent Declination
Unknown
Sunlit
N/A
Visualization observer readout
Local Sidereal Time
09:20:09
Azimuth
Unknown
Elevation
Unknown
Doppler factor
Unknown
Orbital elements
Apogee altitude
478.074 km
Perigee altitude
456.671 km
Semi-major axis
6,845.509 km
Eccentricity
0.00156
Inclination
96.9097°
RAAN
277.0229°
Arg. of periapsis
157.259°
True anomaly
202.86522°
Mean anomaly
202.9349°
Eccentric anomaly
202.90005°
Mean motion
3.83208 °/min
Orbital period
93.94 mins
BSTAR
0.0001945
Loading maneuver chart data...
Computing Atmospheric mass density...
Loading historical data...
Loading historical data...
Loading historical data...
Loading historical data...
Loading historical data...
Loading historical data...
Loading historical data...

Documentation

Showing up to 5 results
|